星链-30811 (STARLINK-30811 )

导读 | 星芒AI

STARLINK-30811 是 SpaceX 星链计划中的一颗低轨通信卫星,属于第 31 批组网发射任务。该卫星于 2023 年 11 月 由猎鹰 9 号火箭送入近地轨道,旨在为全球用户提供高速互联网服务。作为星链星座的一部分,它运行在约 550 公里高度的轨道上,具备高带宽和低延迟特性,支持偏远地区的网络接入。星链计划目标是构建由数千颗卫星组成的全球网络,提升全球互联网覆盖率与稳定性。

基本信息
目录编号:
58167
目录名称:
STARLINK-30811
国际标识:
2023-166T
轨道中心:
EARTH
卫星名称:
星链-30811
卫星全名:
星链-30811 (STARLINK-30811 )
卫星状态:
在轨 (已飞行782 天)
发射日期:
2023-10-29 UTC
国别 :
美国 (US)
星等 :
--
轨道信息
数据来源 国际轨道数据
星历时间: 2025-12-19T05:42:00+0800
20小时前
查看轨道信息
半长轴: 6853.384km
偏心率: 0.0001258
轨道倾角: 53.159°
近地点辐角 84.072°
升交点赤经 234.644°
平近点角 276.043°
近地点: 474.386km
远地点: 476.112km
周期: 94.106分钟
每日圈数: 15.301896
详细信息
固有亮度:
5
最大亮度:
0.3
卫星平台:
Starlink v2.0 mini
覆盖范围:
全球
运营商:
太空探索技术公司
运营商所在国:
美国
制造商(研发单位):
太空探索技术公司
制造商所在国:
美国
使用方式:
暂无
卫星简介
星链(Starlink)计划是由太空探索技术公司(SpaceX)提出的一个巨型低轨卫星互联网星座项目,计划在2019年至2024年间在太空搭建由约1.2万颗卫星组成的“星链”网络,其中1584颗将部署在地球上空550千米处的近地轨道,并从2020年开始工作。该卫星仍在工作。
2D轨道图
3D轨道图
轨道高度分析图
轨道倾角分析图
轨道综合分析图
查看轨道综合分析图